Home   Weather   Bristol   Past weeks

Flag for USA Past Weather in Bristol, Tennessee, USA — Yesterday and Last 2 Weeks

Now
44 °F

Mostly cloudy.


Feels Like: 41 °F
Forecast: 40 / 48 °F
Wind: 5 mph from North

Location: Abingdon-Southwest Abingdon

Current Time: Jan 24, 2017 at 6:43:59 am

Latest Report: Jan 24, 2017 at 5:55 am


Visibility: 10 mi

Pressure: 29.67 "Hg (27.88 "Hg at 510m altitude)

Humidity: 94%

Dew Point: 42 °F

Location of BristolLocation

Past Weather in Bristol — Graph

°F

Bristol Temperature Yesterday

Maximum temperature yesterday: 53 °F (at 12:35 am)
Minimum temperature yesterday: 46 °F (at 10:15 pm)
Average temperature yesterday: 49 °F

High & Low Weather Summary for the Past Weeks

 TemperatureHumidityPressure
High66 °F (Jan 16, 2:15 pm)100% (Jan 11, 6:35 am)30.56 "Hg (Jan 11, 6:35 am)
Low15 °F (Jan 9, 5:55 am)18% (Jan 19, 1:55 pm)29.19 "Hg (Jan 23, 4:35 am)
Average52 °F82%30.07 "Hg
* Reported Jan 9 5:15 am — Jan 24 5:15 am, Bristol, Weather by CustomWeather, © 2017

Note: Actual official high and low records may vary slightly from our data, if they occured in-between our weather recording intervals... More about our weather records

Advertising

Bristol Weather History for the Previous 24 Hours

Scroll right to see more
 ConditionsComfort  
Time TempWeatherWind HumidityBarometerVisibility
5:15 am
Tue, Jan 24
44 °FDrizzle. Mostly cloudy.7 mph93%29.66 "Hg4 mi
4:55 am45 °FFog.7 mph89%29.66 "Hg5 mi
4:15 am45 °FOvercast.6 mph87%29.65 "Hg10 mi
3:55 am45 °FOvercast.12 mph88%29.65 "Hg10 mi
3:35 am46 °FOvercast.5 mph84%29.64 "Hg10 mi
2:55 am46 °FMostly cloudy.9 mph87%29.63 "Hg10 mi
2:15 am46 °FOvercast.12 mph87%29.61 "Hg10 mi
1:35 am46 °FDrizzle. Mostly cloudy.10 mph92%29.60 "Hg7 mi
12:55 am46 °FDrizzle. Overcast.10 mph92%29.59 "Hg7 mi
12:15 am46 °FDrizzle. Mostly cloudy.13 mph93%29.59 "Hg5 mi
11:55 pm
Mon, Jan 23
46 °FDrizzle. Overcast.10 mph93%29.59 "Hg4 mi
11:15 pm46 °FDrizzle. Overcast.9 mph92%29.58 "Hg5 mi
10:55 pm46 °FDrizzle. Mostly cloudy.7 mph92%29.56 "Hg4 mi
10:15 pm46 °FDrizzle. Overcast.10 mph92%29.56 "Hg4 mi
9:55 pm47 °FDrizzle. Overcast.9 mph90%29.55 "Hg3 mi
9:15 pm47 °FLight rain. Overcast.13 mph85%29.53 "Hg7 mi
8:55 pm47 °FMostly cloudy.14 mph86%29.52 "Hg10 mi
8:35 pm48 °FRain. Overcast.10 mph87%29.51 "Hg7 mi
7:55 pm48 °FDrizzle. Mostly cloudy.10 mph89%29.50 "Hg7 mi
7:15 pm48 °FDrizzle. Overcast.13 mph92%29.47 "Hg7 mi
6:55 pm47 °FFog.5 mph96%29.47 "Hg5 mi
6:35 pm47 °FHeavy rain. Overcast.3 mph95%29.45 "Hg3 mi
5:55 pm48 °FRain. Mostly cloudy.6 mph92%29.43 "Hg2 mi
5:15 pm50 °FMore clouds than sun.3 mph85%29.41 "Hg10 mi
4:55 pm50 °FMostly cloudy.3 mph85%29.40 "Hg10 mi
4:35 pm50 °FCloudy.3 mph84%29.39 "Hg10 mi
3:55 pm50 °FCloudy.No wind90%29.37 "Hg10 mi
3:15 pm49 °FDrizzle. More clouds than sun.No wind91%29.36 "Hg7 mi
2:55 pm49 °FDrizzle. More clouds than sun.3 mph90%29.36 "Hg10 mi
2:15 pm49 °FRain. More clouds than sun.No wind90%29.35 "Hg10 mi
1:55 pm49 °FLight rain. Overcast.3 mph89%29.34 "Hg10 mi
1:15 pm49 °FRain. Overcast.No wind86%29.33 "Hg10 mi
12:55 pm49 °FRain. Mostly cloudy.No wind86%29.33 "Hg10 mi
12:15 pm49 °FLight rain. Cloudy.3 mph86%29.34 "Hg10 mi
11:55 am49 °FRain. Mostly cloudy.5 mph89%29.34 "Hg10 mi
11:35 am49 °FLight rain. Cloudy.7 mph89%29.33 "Hg10 mi
10:55 am49 °FLight rain. Overcast.3 mph89%29.32 "Hg10 mi
10:15 am49 °FRain. Mostly cloudy.13 mph90%29.30 "Hg10 mi
9:55 am50 °FLight rain. More clouds than sun.8 mph92%29.28 "Hg10 mi
9:15 am49 °FLight rain. Cloudy.16 mph92%29.26 "Hg10 mi
8:35 am49 °FLight rain. Cloudy.8 mph92%29.24 "Hg10 mi
7:55 am49 °FRain. Cloudy.12 mph93%29.23 "Hg10 mi
7:15 am49 °FLight rain. Mostly cloudy.12 mph94%29.22 "Hg7 mi
6:55 am49 °FRain. Overcast.14 mph92%29.21 "Hg7 mi
6:15 am49 °FRain. Mostly cloudy.17 mph92%29.19 "Hg10 mi
Weather by CustomWeather, © 2017

See weather overviewHow to use our weather pages